Location: Shenandoah County Park
(38.9356°N, 78.4524°W)
Time: 10:19:43
(UTC-05:00)

Courier 1B - All Passes

Search period start: 27 January 2023 00:00
Search period end: 06 February 2023 00:00
Orbit: 963 x 1209 km, 28.3° (Epoch: 27 January)

Date Brightness Start Highest point End Pass type
(mag) Time Alt. Az. Time Alt. Az. Time Alt. Az.
27 Jan - 14:26:19 10° SSW 14:30:35 18° SSE 14:34:52 10° ESE daylight
27 Jan - 16:18:09 10° SW 16:23:44 31° S 16:29:27 10° ESE daylight
27 Jan - 18:11:25 10° WSW 18:17:05 31° S 18:22:58 10° SE visible
27 Jan - 20:05:49 10° WSW 20:10:21 19° SSW 20:15:03 10° SSE visible
28 Jan - 13:33:40 10° S 13:37:04 15° SSE 13:40:27 10° SE daylight
28 Jan - 15:24:46 10° SW 15:30:09 28° S 15:35:38 10° ESE daylight
28 Jan - 17:17:47 10° WSW 17:23:27 32° S 17:29:19 10° ESE daylight
28 Jan - 19:11:47 10° WSW 19:16:45 22° SSW 19:21:53 10° SSE visible
29 Jan - 12:41:48 10° S 12:43:34 11° SSE 12:45:19 10° SE daylight
29 Jan - 14:31:28 10° SW 14:36:36 25° SSE 14:41:45 10° ESE daylight
29 Jan - 16:24:12 10° WSW 16:29:52 32° S 16:35:38 10° ESE daylight
29 Jan - 18:17:56 10° WSW 18:23:09 25° SSW 18:28:33 10° SE visible
29 Jan - 20:14:05 10° SW 20:16:18 12° SSW 20:18:34 10° S visible
30 Jan - 13:38:17 10° SSW 13:43:04 22° SSE 13:47:48 10° ESE daylight
30 Jan - 15:30:39 10° WSW 15:36:16 32° S 15:41:56 10° ESE daylight
30 Jan - 17:24:10 10° WSW 17:29:34 28° S 17:35:07 10° SE daylight
30 Jan - 19:19:10 10° SW 19:22:45 15° SSW 19:26:23 10° S visible
31 Jan - 12:45:16 10° SSW 12:49:32 18° SSE 12:53:43 10° ESE daylight
31 Jan - 14:37:09 10° SW 14:42:42 30° S 14:48:13 10° ESE daylight
31 Jan - 16:30:27 10° WSW 16:35:59 30° S 16:41:36 10° SE daylight
31 Jan - 18:24:53 10° WSW 18:29:11 18° SSW 18:33:35 10° SSE visible
01 Feb - 11:52:32 10° S 11:55:59 15° SSE 11:59:22 10° SE daylight
01 Feb - 13:43:40 10° SW 13:49:07 28° S 13:54:29 10° ESE daylight
01 Feb - 15:36:47 10° WSW 15:42:24 32° S 15:48:03 10° ESE daylight
01 Feb - 17:30:51 10° WSW 17:35:38 22° SSW 17:40:31 10° SSE daylight
02 Feb - 11:00:34 10° S 11:02:26 11° SSE 11:04:17 10° SE daylight
02 Feb - 12:50:17 10° SW 12:55:33 25° SSE 13:00:41 10° ESE daylight
02 Feb - 14:43:07 10° WSW 14:48:50 32° S 14:54:29 10° ESE daylight
02 Feb - 16:36:56 10° WSW 16:42:05 25° SSW 16:47:16 10° SE daylight
02 Feb - 18:33:08 10° SW 18:35:09 11° SSW 18:37:11 10° S visible
03 Feb - 11:57:00 10° SSW 12:01:59 22° SSE 12:06:48 10° ESE daylight
03 Feb - 13:49:29 10° WSW 13:55:14 32° S 14:00:52 10° ESE daylight
03 Feb - 15:43:07 10° WSW 15:48:31 28° S 15:53:55 10° SE daylight
03 Feb - 17:38:10 10° SW 17:41:37 15° SSW 17:45:08 10° S daylight
04 Feb - 11:03:54 10° SSW 11:08:24 18° SSE 11:12:45 10° ESE daylight
04 Feb - 12:55:52 10° SW 13:01:39 30° S 13:07:13 10° ESE daylight
04 Feb - 14:49:18 10° WSW 14:54:57 31° S 15:00:31 10° SE daylight
04 Feb - 16:43:49 10° WSW 16:48:07 19° SSW 16:52:25 10° SSE daylight
05 Feb - 10:11:05 10° S 10:14:48 15° SSE 10:18:26 10° SE daylight
05 Feb - 12:02:19 10° SW 12:08:02 28° S 12:13:31 10° ESE daylight
05 Feb - 13:55:32 10° WSW 14:01:22 32° S 14:07:02 10° ESE daylight
05 Feb - 15:49:42 10° WSW 15:54:35 22° SSW 15:59:25 10° SSE daylight
